GEFSNE_prec_meanprecacc_336.txt.gz
Total_Precipitation_Accumulation
3.19 3.47 3.31 3.14 3.16 3.13 3.43 3.78 3.82 3.37 2.98 2.75 2.55 2.43 2.37 2.33 2.43 2.25 2.23 2.27 2.04 1.88 1.77 1.68 1.67 1.65 1.74 1.88 2.10 2.35 2.55 2.73 2.91 3.07 3.31 3.58 3.90 4.21
3.07 3.22 3.21 3.13 3.34 3.34 3.45 3.74 3.99 3.90 3.23 2.94 2.80 2.46 2.49 2.08 2.25 2.11 2.10 2.11 1.88 1.75 1.66 1.64 1.64 1.65 1.63 1.63 1.70 1.83 2.00 2.16 2.30 2.41 2.48 2.56 2.71 2.95
2.62 2.72 2.71 2.97 3.18 3.17 3.38 3.55 3.80 4.08 3.59 3.24 3.25 2.96 2.90 2.61 2.35 2.12 1.90 1.86 1.73 1.71 1.58 1.53 1.51 1.53 1.57 1.50 1.46 1.52 1.64 1.78 1.89 2.03 2.22 2.34 2.37 2.44
2.48 2.58 2.44 2.68 2.83 2.90 3.13 3.29 3.57 4.02 3.82 3.47 3.35 3.22 3.11 2.89 2.66 2.39 1.90 1.66 1.69 1.81 1.65 1.52 1.47 1.45 1.46 1.41 1.35 1.31 1.33 1.39 1.47 1.60 1.79 1.98 2.11 2.25
2.30 2.24 2.17 2.39 2.46 2.66 2.85 2.86 3.07 3.49 3.59 3.25 3.08 3.30 3.17 2.97 3.02 2.63 2.29 2.20 1.71 1.72 1.65 1.49 1.44 1.37 1.35 1.37 1.35 1.26 1.22 1.22 1.25 1.37 1.58 1.77 1.90 1.99
2.02 1.93 1.96 2.15 2.17 2.34 2.42 2.63 2.86 2.98 3.20 3.13 2.98 3.09 3.11 3.04 3.23 3.00 2.79 2.61 2.20 1.80 1.80 1.60 1.49 1.42 1.34 1.29 1.29 1.29 1.31 1.30 1.30 1.35 1.43 1.55 1.73 1.84
1.76 1.64 1.58 1.61 1.71 1.91 1.88 2.18 2.50 2.61 2.69 2.82 2.82 2.92 3.13 3.28 3.14 3.14 2.98 2.81 2.58 2.31 2.27 1.89 1.60 1.39 1.32 1.30 1.30 1.35 1.40 1.43 1.45 1.51 1.60 1.66 1.73 1.81
1.72 1.70 1.52 1.42 1.44 1.53 1.57 1.67 1.93 2.09 2.28 2.54 2.62 2.69 2.91 3.20 3.30 3.31 3.21 2.99 2.75 2.52 2.64 2.59 2.21 1.87 1.61 1.35 1.35 1.37 1.45 1.56 1.61 1.69 1.78 1.90 2.02 2.03
1.70 1.67 1.40 1.29 1.38 1.34 1.45 1.49 1.58 1.68 1.80 2.07 2.19 2.22 2.49 2.84 3.23 3.26 3.31 3.09 2.84 2.80 2.90 2.90 2.96 2.67 2.05 1.69 1.64 1.44 1.47 1.58 1.65 1.72 1.79 1.84 1.99 2.16
1.61 1.66 1.64 1.59 1.50 1.54 1.57 1.48 1.37 1.40 1.47 1.44 1.55 1.82 2.03 2.33 2.76 2.91 3.17 3.33 3.15 3.04 3.07 3.11 3.16 3.37 2.84 2.25 2.09 1.79 1.70 1.72 1.78 1.80 1.83 1.90 1.97 2.07
1.64 1.67 1.66 1.59 1.60 1.58 1.56 1.53 1.40 1.35 1.36 1.37 1.37 1.54 1.78 1.94 2.26 2.61 2.88 3.11 3.16 3.22 3.29 3.35 3.27 3.45 3.67 3.16 2.48 2.15 1.88 1.78 1.81 1.87 1.93 2.01 2.07 2.10
1.73 1.72 1.64 1.54 1.64 1.54 1.40 1.45 1.44 1.48 1.54 1.49 1.51 1.56 1.60 1.76 2.08 2.32 2.58 2.89 2.92 2.99 2.84 2.87 2.91 3.09 3.50 3.62 3.19 2.54 2.08 1.93 1.84 1.79 1.82 1.91 2.07 1.91
1.75 1.78 1.76 1.68 1.41 1.34 1.31 1.33 1.43 1.52 1.59 1.63 1.63 1.69 1.81 1.87 1.91 2.07 2.34 2.61 2.71 2.51 2.31 2.51 2.71 2.86 2.95 3.06 3.17 3.04 2.58 2.25 2.06 1.88 1.84 1.82 1.86 1.81
2.02 2.00 1.96 1.78 1.49 1.37 1.28 1.34 1.46 1.42 1.42 1.55 1.55 1.53 1.63 1.75 1.86 2.04 2.23 2.35 2.41 2.41 2.43 2.61 2.71 2.74 2.86 2.87 2.87 2.89 2.85 2.66 2.47 2.34 2.27 2.26 2.05 1.97
2.22 2.24 2.13 1.89 1.63 1.41 1.35 1.35 1.34 1.28 1.29 1.39 1.37 1.35 1.42 1.55 1.68 1.89 2.11 2.30 2.34 2.25 2.28 2.43 2.55 2.58 2.73 2.77 2.66 2.55 2.64 2.71 2.69 2.65 2.68 2.65 2.47 2.29
2.35 2.29 2.19 1.99 1.71 1.55 1.47 1.38 1.27 1.32 1.35 1.34 1.37 1.40 1.52 1.65 1.77 1.86 2.05 2.23 2.39 2.30 2.24 2.27 2.37 2.56 2.54 2.38 2.32 2.14 2.14 2.25 2.39 2.56 2.75 2.94 2.95 2.83
2.48 2.32 2.22 2.01 1.81 1.71 1.62 1.54 1.50 1.49 1.42 1.37 1.43 1.45 1.49 1.58 1.67 1.71 1.85 1.95 2.00 2.00 2.08 2.19 2.36 2.53 2.53 2.44 2.30 2.04 1.99 1.93 2.00 2.31 2.64 2.85 2.84 2.68
1.97 1.90 1.94 1.88 1.79 1.71 1.66 1.59 1.58 1.50 1.46 1.44 1.47 1.45 1.43 1.46 1.56 1.68 1.79 1.84 1.82 1.81 1.91 2.03 2.30 2.55 2.58 2.37 2.00 1.86 1.85 1.82 1.86 2.10 2.29 2.37 2.32 2.19
1.67 1.68 1.65 1.63 1.61 1.60 1.59 1.55 1.51 1.48 1.52 1.55 1.52 1.53 1.56 1.56 1.56 1.68 1.82 1.90 1.86 1.84 1.94 2.12 2.29 2.44 2.39 2.13 1.86 1.62 1.67 1.73 1.89 2.05 2.11 2.07 1.94 1.78
1.56 1.61 1.61 1.60 1.59 1.62 1.65 1.61 1.61 1.61 1.64 1.67 1.68 1.71 1.75 1.75 1.77 1.78 1.85 1.92 1.89 1.89 1.97 2.10 2.14 2.17 2.19 2.09 1.96 1.75 1.53 1.61 1.72 1.81 1.88 1.92 1.81 1.64
1.65 1.71 1.72 1.74 1.75 1.79 1.79 1.75 1.76 1.71 1.67 1.73 1.74 1.76 1.77 1.80 1.88 1.89 1.94 2.01 1.95 1.88 1.84 1.86 1.94 2.10 2.27 2.50 2.33 1.93 1.72 1.67 1.72 1.77 1.86 1.98 1.95 1.87
1.66 1.70 1.75 1.79 1.84 1.84 1.79 1.76 1.79 1.76 1.73 1.74 1.72 1.72 1.74 1.74 1.76 1.84 1.87 1.89 1.87 1.82 1.78 1.84 2.09 2.31 2.39 2.45 2.28 2.06 1.98 1.92 1.90 1.87 1.79 1.72 1.73 1.71
1.68 1.73 1.73 1.70 1.69 1.67 1.62 1.62 1.71 1.74 1.76 1.77 1.75 1.72 1.72 1.72 1.73 1.82 1.89 1.91 1.91 1.94 1.95 2.01 2.11 2.23 2.30 2.33 2.37 2.30 2.14 2.06 2.05 2.00 1.87 1.65 1.35 1.19

GEFSNE_prec_meanprecacc_342.txt.gz
Total_Precipitation_Accumulation
3.24 3.53 3.37 3.21 3.22 3.20 3.49 3.85 3.91 3.45 3.03 2.77 2.56 2.44 2.39 2.37 2.50 2.29 2.27 2.30 2.07 1.89 1.78 1.69 1.68 1.66 1.76 1.91 2.15 2.42 2.62 2.80 2.97 3.15 3.40 3.68 4.00 4.31
3.12 3.26 3.25 3.18 3.40 3.40 3.52 3.81 4.07 3.98 3.29 2.96 2.82 2.47 2.51 2.11 2.30 2.16 2.14 2.14 1.90 1.77 1.67 1.65 1.66 1.66 1.65 1.65 1.73 1.88 2.06 2.21 2.34 2.45 2.53 2.64 2.82 3.07
2.68 2.77 2.75 3.02 3.24 3.24 3.45 3.62 3.87 4.14 3.64 3.27 3.27 2.98 2.94 2.65 2.41 2.18 1.94 1.90 1.75 1.72 1.59 1.54 1.51 1.54 1.58 1.52 1.49 1.56 1.68 1.81 1.93 2.06 2.25 2.37 2.41 2.51
2.55 2.64 2.49 2.74 2.90 2.99 3.22 3.38 3.65 4.10 3.89 3.51 3.38 3.25 3.14 2.93 2.74 2.48 1.97 1.71 1.72 1.84 1.67 1.55 1.49 1.47 1.48 1.44 1.38 1.35 1.36 1.42 1.49 1.62 1.81 2.00 2.14 2.28
2.37 2.30 2.23 2.45 2.53 2.75 2.95 2.96 3.15 3.57 3.67 3.31 3.12 3.34 3.20 3.00 3.06 2.68 2.36 2.26 1.75 1.76 1.69 1.53 1.47 1.40 1.38 1.40 1.38 1.29 1.25 1.25 1.28 1.39 1.60 1.79 1.92 2.01
2.11 2.01 2.04 2.22 2.24 2.42 2.49 2.70 2.93 3.06 3.28 3.21 3.04 3.14 3.15 3.07 3.27 3.04 2.84 2.66 2.25 1.84 1.85 1.65 1.54 1.46 1.38 1.32 1.32 1.33 1.34 1.32 1.31 1.37 1.44 1.56 1.74 1.86
1.83 1.71 1.64 1.68 1.76 1.96 1.92 2.22 2.55 2.66 2.74 2.87 2.87 2.96 3.17 3.32 3.17 3.17 3.03 2.86 2.62 2.36 2.32 1.94 1.65 1.44 1.38 1.35 1.34 1.38 1.43 1.45 1.46 1.52 1.61 1.68 1.74 1.82
1.76 1.73 1.55 1.47 1.50 1.58 1.60 1.70 1.96 2.12 2.31 2.57 2.64 2.71 2.94 3.24 3.34 3.34 3.25 3.04 2.79 2.57 2.70 2.64 2.26 1.93 1.70 1.42 1.39 1.39 1.47 1.57 1.62 1.70 1.80 1.92 2.04 2.05
1.72 1.70 1.43 1.32 1.43 1.38 1.50 1.53 1.61 1.71 1.83 2.11 2.22 2.24 2.52 2.88 3.28 3.30 3.36 3.14 2.89 2.85 2.96 2.95 3.01 2.72 2.12 1.74 1.67 1.46 1.49 1.60 1.67 1.73 1.82 1.86 2.01 2.19
1.64 1.69 1.69 1.64 1.55 1.59 1.61 1.53 1.41 1.43 1.51 1.48 1.59 1.85 2.07 2.38 2.81 2.96 3.22 3.38 3.20 3.09 3.14 3.18 3.21 3.42 2.89 2.29 2.12 1.82 1.72 1.74 1.79 1.81 1.85 1.92 1.98 2.08
1.66 1.70 1.68 1.61 1.62 1.59 1.57 1.55 1.42 1.37 1.37 1.40 1.40 1.57 1.81 1.97 2.31 2.65 2.92 3.15 3.21 3.29 3.37 3.42 3.34 3.51 3.73 3.22 2.52 2.18 1.91 1.80 1.82 1.88 1.94 2.02 2.09 2.13
1.75 1.73 1.64 1.55 1.64 1.55 1.41 1.46 1.45 1.48 1.55 1.51 1.52 1.58 1.63 1.80 2.13 2.39 2.65 2.96 2.99 3.05 2.88 2.92 2.95 3.14 3.55 3.68 3.24 2.57 2.10 1.94 1.85 1.80 1.84 1.93 2.09 1.94
1.76 1.79 1.77 1.68 1.41 1.34 1.32 1.33 1.43 1.52 1.60 1.64 1.65 1.70 1.83 1.90 1.95 2.11 2.39 2.67 2.76 2.55 2.35 2.55 2.74 2.89 2.98 3.10 3.21 3.07 2.59 2.27 2.08 1.90 1.86 1.84 1.89 1.83
2.03 2.01 1.97 1.79 1.49 1.37 1.28 1.34 1.46 1.42 1.43 1.56 1.56 1.55 1.66 1.78 1.90 2.08 2.26 2.38 2.45 2.45 2.48 2.66 2.76 2.78 2.90 2.91 2.91 2.92 2.88 2.69 2.50 2.36 2.30 2.30 2.09 2.00
2.24 2.26 2.14 1.90 1.63 1.42 1.36 1.36 1.35 1.29 1.31 1.40 1.39 1.37 1.46 1.59 1.71 1.92 2.14 2.33 2.38 2.29 2.32 2.48 2.60 2.63 2.78 2.82 2.70 2.58 2.67 2.74 2.73 2.69 2.72 2.70 2.52 2.33
2.38 2.31 2.20 2.00 1.72 1.56 1.49 1.40 1.30 1.35 1.38 1.36 1.40 1.44 1.56 1.69 1.81 1.89 2.08 2.27 2.42 2.34 2.28 2.32 2.42 2.61 2.59 2.43 2.37 2.18 2.17 2.29 2.43 2.60 2.80 2.99 3.00 2.87
2.51 2.34 2.23 2.03 1.84 1.73 1.65 1.57 1.53 1.53 1.47 1.41 1.48 1.50 1.55 1.63 1.71 1.74 1.88 1.97 2.02 2.02 2.11 2.23 2.41 2.58 2.58 2.50 2.35 2.08 2.02 1.97 2.04 2.36 2.70 2.91 2.88 2.72
1.99 1.92 1.97 1.91 1.83 1.75 1.69 1.62 1.61 1.53 1.49 1.48 1.50 1.49 1.47 1.50 1.60 1.70 1.82 1.86 1.84 1.83 1.94 2.05 2.33 2.59 2.62 2.42 2.04 1.91 1.89 1.86 1.92 2.17 2.36 2.44 2.38 2.24
1.70 1.71 1.69 1.66 1.65 1.65 1.64 1.59 1.57 1.53 1.58 1.61 1.57 1.58 1.60 1.60 1.60 1.72 1.86 1.95 1.90 1.88 1.98 2.15 2.32 2.47 2.43 2.16 1.89 1.66 1.72 1.80 1.97 2.12 2.17 2.13 1.99 1.83
1.58 1.63 1.64 1.63 1.62 1.66 1.68 1.65 1.65 1.66 1.70 1.73 1.75 1.78 1.81 1.81 1.82 1.83 1.89 1.96 1.94 1.95 2.04 2.16 2.19 2.22 2.23 2.14 2.01 1.79 1.58 1.68 1.79 1.87 1.93 1.97 1.86 1.68
1.68 1.74 1.76 1.77 1.78 1.82 1.80 1.77 1.78 1.74 1.71 1.77 1.79 1.81 1.82 1.86 1.94 1.95 1.99 2.07 2.01 1.95 1.92 1.94 2.02 2.17 2.34 2.58 2.41 1.99 1.77 1.71 1.76 1.81 1.91 2.04 2.01 1.91
1.69 1.74 1.77 1.81 1.85 1.86 1.81 1.78 1.80 1.78 1.75 1.78 1.76 1.76 1.78 1.77 1.80 1.88 1.91 1.95 1.94 1.90 1.86 1.92 2.16 2.38 2.47 2.54 2.37 2.15 2.05 1.99 1.95 1.91 1.84 1.77 1.78 1.75
1.70 1.75 1.75 1.72 1.71 1.68 1.63 1.64 1.73 1.77 1.79 1.80 1.78 1.75 1.76 1.75 1.75 1.84 1.92 1.95 1.97 2.00 2.01 2.06 2.16 2.29 2.36 2.41 2.46 2.38 2.21 2.13 2.12 2.07 1.93 1.70 1.39 1.24

GEFSNE_prec_meanprecacc_348.txt.gz
Total_Precipitation_Accumulation
3.33 3.61 3.43 3.26 3.28 3.26 3.55 3.90 3.95 3.49 3.08 2.81 2.58 2.46 2.43 2.41 2.53 2.33 2.31 2.35 2.10 1.93 1.81 1.73 1.72 1.69 1.79 1.94 2.19 2.46 2.68 2.86 3.03 3.20 3.44 3.75 4.08 4.41
3.19 3.35 3.32 3.23 3.45 3.45 3.57 3.87 4.12 4.02 3.31 2.99 2.84 2.50 2.55 2.15 2.34 2.20 2.17 2.18 1.94 1.80 1.69 1.67 1.68 1.68 1.67 1.67 1.76 1.91 2.10 2.27 2.40 2.49 2.57 2.68 2.87 3.16
2.72 2.81 2.79 3.06 3.28 3.28 3.49 3.68 3.93 4.18 3.66 3.29 3.29 3.00 2.97 2.69 2.46 2.26 2.04 1.98 1.79 1.76 1.62 1.55 1.53 1.55 1.59 1.53 1.51 1.59 1.73 1.86 1.96 2.10 2.29 2.42 2.46 2.57
2.56 2.67 2.52 2.78 2.94 3.04 3.27 3.43 3.69 4.14 3.92 3.55 3.41 3.27 3.18 3.01 2.81 2.59 2.11 1.82 1.79 1.89 1.71 1.57 1.52 1.49 1.50 1.45 1.39 1.37 1.40 1.44 1.52 1.65 1.86 2.06 2.17 2.31
2.39 2.32 2.26 2.48 2.56 2.79 2.99 3.01 3.21 3.63 3.72 3.35 3.15 3.37 3.22 3.03 3.10 2.72 2.43 2.34 1.81 1.81 1.74 1.57 1.51 1.43 1.41 1.42 1.39 1.31 1.27 1.27 1.30 1.42 1.64 1.82 1.95 2.03
2.14 2.04 2.08 2.27 2.29 2.48 2.54 2.74 2.97 3.10 3.32 3.24 3.07 3.17 3.18 3.10 3.31 3.07 2.87 2.69 2.28 1.87 1.88 1.69 1.60 1.53 1.43 1.37 1.35 1.35 1.36 1.35 1.34 1.40 1.48 1.59 1.76 1.88
1.86 1.74 1.68 1.72 1.80 2.00 1.95 2.25 2.58 2.69 2.77 2.91 2.91 3.00 3.20 3.36 3.21 3.21 3.06 2.88 2.64 2.38 2.34 1.96 1.68 1.49 1.45 1.41 1.40 1.42 1.46 1.48 1.49 1.54 1.64 1.70 1.77 1.85
1.81 1.77 1.58 1.50 1.53 1.61 1.64 1.74 2.00 2.16 2.35 2.63 2.71 2.76 2.98 3.27 3.38 3.39 3.29 3.07 2.81 2.59 2.72 2.66 2.28 1.97 1.74 1.46 1.44 1.45 1.51 1.61 1.65 1.73 1.82 1.93 2.06 2.08
1.76 1.73 1.45 1.34 1.45 1.41 1.54 1.57 1.67 1.76 1.89 2.18 2.29 2.31 2.59 2.93 3.33 3.34 3.39 3.18 2.92 2.87 2.98 2.98 3.05 2.78 2.17 1.80 1.73 1.51 1.54 1.64 1.70 1.76 1.85 1.89 2.03 2.22
1.66 1.72 1.72 1.66 1.57 1.61 1.63 1.55 1.44 1.49 1.56 1.53 1.63 1.88 2.11 2.42 2.85 2.98 3.25 3.41 3.22 3.12 3.18 3.22 3.26 3.47 2.95 2.36 2.19 1.88 1.78 1.79 1.82 1.83 1.87 1.94 2.00 2.11
1.68 1.72 1.71 1.65 1.65 1.61 1.58 1.56 1.43 1.38 1.39 1.41 1.42 1.58 1.83 1.99 2.34 2.68 2.95 3.18 3.24 3.33 3.41 3.46 3.36 3.54 3.78 3.30 2.60 2.26 1.98 1.85 1.86 1.90 1.96 2.04 2.11 2.14
1.78 1.77 1.68 1.59 1.67 1.55 1.42 1.47 1.46 1.49 1.56 1.51 1.53 1.59 1.64 1.81 2.14 2.41 2.67 2.99 3.03 3.09 2.92 2.95 2.97 3.16 3.61 3.77 3.33 2.65 2.16 1.99 1.88 1.82 1.85 1.94 2.10 1.94
1.79 1.82 1.79 1.71 1.43 1.35 1.32 1.34 1.44 1.54 1.62 1.65 1.66 1.71 1.84 1.90 1.96 2.13 2.41 2.68 2.78 2.57 2.37 2.58 2.78 2.93 3.04 3.19 3.31 3.15 2.66 2.32 2.11 1.92 1.87 1.85 1.90 1.84
2.06 2.04 2.00 1.81 1.51 1.38 1.29 1.35 1.47 1.44 1.45 1.58 1.58 1.57 1.68 1.79 1.91 2.09 2.28 2.41 2.48 2.48 2.51 2.70 2.82 2.83 2.96 2.97 2.98 3.00 2.95 2.74 2.53 2.38 2.31 2.31 2.10 2.01
2.28 2.28 2.17 1.93 1.66 1.44 1.37 1.36 1.36 1.31 1.33 1.43 1.41 1.39 1.48 1.60 1.73 1.94 2.16 2.36 2.42 2.33 2.37 2.56 2.70 2.73 2.86 2.87 2.73 2.63 2.72 2.79 2.75 2.71 2.74 2.71 2.53 2.35
2.42 2.35 2.23 2.02 1.75 1.58 1.51 1.41 1.31 1.37 1.40 1.39 1.43 1.47 1.59 1.71 1.83 1.91 2.10 2.30 2.46 2.39 2.33 2.37 2.49 2.67 2.64 2.47 2.39 2.21 2.22 2.33 2.46 2.62 2.82 3.01 3.02 2.90
2.56 2.37 2.26 2.06 1.86 1.75 1.67 1.59 1.55 1.55 1.49 1.44 1.51 1.54 1.59 1.68 1.76 1.79 1.94 2.05 2.10 2.11 2.21 2.32 2.49 2.63 2.62 2.54 2.39 2.12 2.06 2.01 2.07 2.38 2.72 2.92 2.90 2.75
2.05 1.98 2.01 1.94 1.84 1.77 1.71 1.64 1.63 1.56 1.52 1.51 1.53 1.52 1.51 1.54 1.64 1.75 1.86 1.92 1.90 1.89 1.98 2.10 2.39 2.65 2.68 2.47 2.08 1.95 1.94 1.90 1.95 2.20 2.39 2.46 2.40 2.27
1.74 1.77 1.74 1.71 1.68 1.67 1.65 1.60 1.58 1.56 1.61 1.65 1.61 1.62 1.64 1.63 1.64 1.77 1.91 2.00 1.96 1.94 2.04 2.20 2.37 2.52 2.48 2.21 1.94 1.72 1.78 1.83 2.01 2.15 2.21 2.17 2.03 1.86
1.59 1.65 1.67 1.67 1.66 1.69 1.71 1.66 1.67 1.68 1.72 1.77 1.79 1.82 1.86 1.87 1.87 1.89 1.95 2.02 2.00 2.02 2.12 2.24 2.25 2.26 2.27 2.18 2.06 1.85 1.64 1.72 1.82 1.90 1.97 2.02 1.90 1.72
1.69 1.75 1.77 1.78 1.80 1.85 1.84 1.80 1.81 1.76 1.72 1.79 1.82 1.84 1.85 1.89 1.98 2.00 2.05 2.12 2.06 1.99 1.96 1.98 2.07 2.22 2.38 2.62 2.45 2.04 1.82 1.74 1.80 1.84 1.94 2.07 2.04 1.95
1.73 1.77 1.80 1.83 1.87 1.88 1.84 1.81 1.83 1.81 1.78 1.79 1.78 1.78 1.80 1.79 1.83 1.91 1.95 1.98 1.97 1.93 1.89 1.95 2.19 2.42 2.51 2.58 2.41 2.19 2.11 2.03 1.98 1.93 1.86 1.80 1.81 1.78
1.72 1.78 1.78 1.74 1.73 1.71 1.66 1.66 1.76 1.79 1.82 1.82 1.80 1.78 1.79 1.79 1.79 1.89 1.96 1.98 2.00 2.04 2.04 2.10 2.19 2.32 2.40 2.45 2.50 2.42 2.25 2.17 2.16 2.12 1.97 1.74 1.43 1.27

GEFSNE_prec_meanprecacc_354.txt.gz
Total_Precipitation_Accumulation
3.36 3.64 3.47 3.32 3.35 3.32 3.61 3.94 4.00 3.54 3.11 2.83 2.60 2.49 2.44 2.42 2.54 2.34 2.32 2.36 2.12 1.94 1.82 1.74 1.74 1.71 1.81 1.97 2.21 2.50 2.75 2.92 3.09 3.26 3.50 3.81 4.16 4.50
3.22 3.37 3.35 3.27 3.50 3.50 3.62 3.92 4.17 4.07 3.35 3.02 2.87 2.52 2.56 2.16 2.35 2.20 2.17 2.18 1.95 1.81 1.71 1.70 1.70 1.70 1.69 1.69 1.80 1.95 2.15 2.32 2.45 2.56 2.63 2.73 2.92 3.22
2.75 2.83 2.81 3.09 3.30 3.30 3.52 3.70 3.96 4.21 3.69 3.31 3.31 3.03 2.99 2.71 2.48 2.27 2.05 1.98 1.80 1.76 1.63 1.57 1.54 1.56 1.61 1.55 1.53 1.61 1.76 1.89 2.00 2.14 2.34 2.48 2.51 2.62
2.58 2.69 2.53 2.79 2.95 3.06 3.30 3.45 3.72 4.17 3.95 3.57 3.45 3.31 3.21 3.04 2.84 2.62 2.13 1.83 1.80 1.91 1.72 1.58 1.53 1.51 1.53 1.47 1.41 1.38 1.41 1.46 1.54 1.68 1.88 2.10 2.23 2.37
2.42 2.34 2.27 2.50 2.58 2.81 3.02 3.03 3.23 3.66 3.76 3.39 3.19 3.41 3.26 3.07 3.14 2.75 2.45 2.37 1.84 1.83 1.76 1.58 1.52 1.45 1.43 1.43 1.41 1.32 1.29 1.29 1.32 1.44 1.67 1.86 1.99 2.08
2.16 2.07 2.10 2.30 2.31 2.50 2.56 2.77 3.01 3.15 3.37 3.29 3.10 3.20 3.21 3.13 3.35 3.10 2.90 2.72 2.31 1.90 1.92 1.71 1.62 1.55 1.45 1.38 1.37 1.37 1.38 1.37 1.36 1.43 1.51 1.62 1.80 1.92
1.89 1.78 1.72 1.76 1.84 2.02 1.98 2.29 2.63 2.74 2.82 2.95 2.94 3.03 3.24 3.40 3.25 3.24 3.09 2.91 2.68 2.42 2.38 2.00 1.71 1.52 1.48 1.45 1.43 1.45 1.47 1.50 1.51 1.57 1.67 1.73 1.79 1.88
1.84 1.79 1.60 1.52 1.54 1.63 1.67 1.77 2.04 2.19 2.38 2.65 2.73 2.79 3.01 3.31 3.42 3.42 3.32 3.11 2.85 2.62 2.74 2.69 2.31 1.99 1.77 1.50 1.51 1.53 1.58 1.66 1.69 1.76 1.86 1.97 2.11 2.12
1.80 1.75 1.47 1.36 1.48 1.44 1.57 1.61 1.70 1.80 1.93 2.21 2.32 2.34 2.62 2.98 3.37 3.38 3.42 3.21 2.95 2.90 3.01 3.01 3.09 2.81 2.22 1.85 1.78 1.57 1.62 1.73 1.77 1.82 1.90 1.94 2.11 2.26
1.71 1.76 1.75 1.70 1.62 1.67 1.68 1.58 1.47 1.51 1.58 1.55 1.65 1.91 2.14 2.45 2.88 3.02 3.29 3.44 3.26 3.16 3.23 3.27 3.31 3.51 2.99 2.41 2.24 1.92 1.82 1.85 1.88 1.88 1.91 1.98 2.05 2.14
1.79 1.82 1.79 1.72 1.72 1.66 1.62 1.59 1.46 1.40 1.40 1.43 1.45 1.62 1.86 2.03 2.37 2.72 2.99 3.22 3.27 3.36 3.45 3.51 3.41 3.57 3.81 3.33 2.64 2.29 2.02 1.89 1.90 1.96 2.01 2.08 2.14 2.15
1.88 1.85 1.74 1.64 1.71 1.60 1.45 1.50 1.48 1.51 1.57 1.53 1.55 1.61 1.66 1.83 2.17 2.43 2.71 3.03 3.06 3.12 2.95 2.97 3.00 3.19 3.63 3.80 3.36 2.68 2.20 2.04 1.93 1.88 1.90 1.98 2.12 1.95
1.87 1.89 1.84 1.75 1.47 1.38 1.35 1.37 1.46 1.56 1.64 1.67 1.67 1.73 1.85 1.91 1.97 2.15 2.44 2.72 2.81 2.60 2.40 2.60 2.80 2.94 3.05 3.22 3.35 3.19 2.72 2.39 2.18 1.99 1.93 1.89 1.93 1.86
2.09 2.08 2.03 1.84 1.54 1.41 1.32 1.39 1.51 1.47 1.47 1.60 1.60 1.59 1.69 1.80 1.92 2.11 2.30 2.43 2.51 2.51 2.53 2.72 2.84 2.85 2.98 3.00 3.03 3.07 3.01 2.81 2.61 2.45 2.36 2.35 2.13 2.04
2.29 2.31 2.19 1.95 1.68 1.46 1.40 1.40 1.40 1.34 1.36 1.45 1.43 1.42 1.51 1.62 1.74 1.95 2.17 2.38 2.44 2.36 2.39 2.58 2.73 2.75 2.88 2.91 2.79 2.70 2.80 2.88 2.83 2.77 2.79 2.74 2.56 2.37
2.44 2.36 2.26 2.05 1.78 1.61 1.54 1.44 1.34 1.40 1.44 1.42 1.46 1.50 1.61 1.74 1.85 1.93 2.11 2.31 2.48 2.41 2.35 2.39 2.52 2.70 2.68 2.52 2.44 2.26 2.26 2.38 2.52 2.68 2.87 3.04 3.03 2.91
2.57 2.39 2.28 2.08 1.89 1.78 1.70 1.61 1.58 1.59 1.54 1.48 1.54 1.57 1.61 1.70 1.79 1.83 1.97 2.07 2.12 2.14 2.24 2.36 2.55 2.68 2.68 2.58 2.43 2.16 2.09 2.03 2.10 2.42 2.76 2.95 2.92 2.76
2.07 2.00 2.04 1.97 1.88 1.80 1.74 1.67 1.65 1.59 1.56 1.56 1.58 1.56 1.53 1.56 1.66 1.78 1.90 1.96 1.95 1.94 2.03 2.14 2.45 2.70 2.74 2.54 2.13 1.99 1.96 1.93 1.98 2.24 2.44 2.50 2.42 2.29
1.75 1.78 1.75 1.72 1.69 1.68 1.67 1.63 1.61 1.58 1.63 1.68 1.66 1.70 1.70 1.67 1.66 1.79 1.94 2.04 2.02 2.02 2.11 2.25 2.42 2.57 2.52 2.27 2.01 1.77 1.82 1.87 2.05 2.21 2.27 2.21 2.05 1.88
1.60 1.66 1.67 1.67 1.67 1.70 1.72 1.68 1.69 1.70 1.74 1.79 1.82 1.84 1.89 1.89 1.89 1.90 1.97 2.05 2.04 2.07 2.16 2.28 2.29 2.31 2.31 2.22 2.11 1.91 1.70 1.77 1.86 1.96 2.03 2.06 1.93 1.75
1.71 1.77 1.79 1.79 1.81 1.86 1.85 1.81 1.82 1.78 1.75 1.81 1.83 1.85 1.86 1.90 1.99 2.01 2.08 2.17 2.12 2.07 2.03 2.04 2.13 2.29 2.43 2.67 2.51 2.12 1.90 1.80 1.84 1.89 1.99 2.11 2.08 1.99
1.75 1.79 1.82 1.84 1.88 1.89 1.85 1.82 1.85 1.83 1.81 1.82 1.81 1.80 1.81 1.81 1.84 1.92 1.97 2.01 2.00 1.98 1.95 2.01 2.25 2.48 2.56 2.64 2.47 2.26 2.18 2.10 2.04 1.99 1.91 1.84 1.85 1.83
1.74 1.79 1.79 1.76 1.74 1.72 1.67 1.68 1.78 1.82 1.84 1.85 1.82 1.80 1.81 1.81 1.81 1.90 1.98 2.02 2.04 2.08 2.09 2.14 2.23 2.36 2.44 2.49 2.54 2.46 2.31 2.23 2.23 2.18 2.02 1.78 1.45 1.29

GEFSNE_prec_meanprecacc_360.txt.gz
Total_Precipitation_Accumulation
3.38 3.67 3.50 3.35 3.39 3.37 3.65 3.99 4.05 3.57 3.14 2.87 2.65 2.53 2.47 2.44 2.56 2.36 2.35 2.38 2.14 1.97 1.84 1.75 1.75 1.72 1.82 1.99 2.22 2.51 2.80 3.04 3.22 3.35 3.56 3.87 4.23 4.59
3.23 3.39 3.38 3.30 3.53 3.53 3.66 3.97 4.22 4.12 3.38 3.06 2.91 2.56 2.60 2.19 2.38 2.22 2.20 2.20 1.97 1.83 1.73 1.71 1.71 1.71 1.69 1.70 1.80 1.96 2.17 2.38 2.55 2.66 2.70 2.78 2.98 3.28
2.77 2.85 2.83 3.11 3.33 3.33 3.56 3.74 4.00 4.26 3.73 3.35 3.36 3.07 3.03 2.75 2.50 2.29 2.07 2.00 1.82 1.78 1.65 1.59 1.55 1.57 1.61 1.55 1.54 1.62 1.78 1.91 2.04 2.21 2.43 2.55 2.57 2.67
2.61 2.72 2.56 2.81 2.98 3.09 3.34 3.49 3.75 4.21 3.99 3.61 3.49 3.36 3.25 3.07 2.87 2.63 2.14 1.84 1.82 1.93 1.74 1.59 1.53 1.52 1.53 1.48 1.42 1.39 1.43 1.47 1.55 1.70 1.93 2.17 2.28 2.42
2.44 2.36 2.29 2.52 2.61 2.84 3.05 3.06 3.25 3.69 3.79 3.42 3.21 3.44 3.29 3.10 3.17 2.78 2.48 2.39 1.85 1.84 1.77 1.59 1.53 1.46 1.43 1.44 1.42 1.33 1.31 1.30 1.32 1.45 1.69 1.90 2.03 2.12
2.19 2.09 2.12 2.32 2.34 2.53 2.60 2.81 3.04 3.17 3.40 3.31 3.13 3.23 3.24 3.16 3.37 3.13 2.93 2.74 2.33 1.92 1.95 1.74 1.64 1.57 1.47 1.39 1.38 1.38 1.39 1.39 1.38 1.44 1.53 1.64 1.82 1.94
1.93 1.82 1.75 1.79 1.86 2.04 2.00 2.32 2.66 2.77 2.84 2.98 2.97 3.06 3.26 3.42 3.27 3.26 3.11 2.94 2.71 2.44 2.42 2.04 1.76 1.57 1.52 1.48 1.45 1.47 1.49 1.52 1.54 1.60 1.70 1.75 1.81 1.90
1.89 1.84 1.64 1.56 1.57 1.66 1.69 1.80 2.06 2.22 2.41 2.69 2.78 2.84 3.07 3.36 3.47 3.46 3.35 3.14 2.88 2.65 2.78 2.74 2.36 2.04 1.82 1.55 1.55 1.57 1.61 1.69 1.72 1.80 1.89 1.99 2.13 2.13
1.87 1.83 1.53 1.40 1.50 1.46 1.60 1.65 1.73 1.84 1.97 2.27 2.39 2.42 2.70 3.04 3.42 3.41 3.45 3.24 2.99 2.93 3.05 3.06 3.13 2.86 2.27 1.90 1.83 1.63 1.68 1.79 1.83 1.87 1.94 1.98 2.15 2.29
1.76 1.82 1.81 1.74 1.65 1.70 1.73 1.64 1.52 1.56 1.63 1.60 1.69 1.95 2.18 2.49 2.91 3.05 3.32 3.48 3.30 3.20 3.27 3.32 3.35 3.56 3.04 2.46 2.30 1.98 1.89 1.94 1.98 1.98 1.99 2.07 2.14 2.19
1.82 1.86 1.84 1.77 1.75 1.70 1.66 1.63 1.49 1.43 1.43 1.46 1.48 1.64 1.88 2.05 2.40 2.75 3.02 3.26 3.32 3.41 3.50 3.56 3.47 3.63 3.86 3.39 2.70 2.35 2.07 1.96 2.00 2.07 2.11 2.19 2.24 2.21
1.92 1.89 1.79 1.67 1.73 1.62 1.46 1.52 1.50 1.54 1.60 1.55 1.57 1.63 1.68 1.86 2.20 2.46 2.74 3.06 3.09 3.16 3.00 3.03 3.07 3.26 3.70 3.86 3.41 2.73 2.25 2.10 2.00 1.95 1.98 2.07 2.19 2.00
1.91 1.92 1.87 1.77 1.48 1.40 1.37 1.38 1.48 1.58 1.67 1.70 1.70 1.75 1.87 1.94 2.00 2.18 2.47 2.74 2.84 2.63 2.43 2.65 2.85 3.01 3.12 3.27 3.39 3.23 2.76 2.44 2.24 2.05 1.98 1.93 1.96 1.89
2.12 2.11 2.06 1.86 1.56 1.43 1.35 1.41 1.53 1.49 1.49 1.62 1.62 1.61 1.72 1.83 1.95 2.14 2.32 2.45 2.53 2.54 2.57 2.76 2.88 2.91 3.03 3.05 3.07 3.10 3.05 2.86 2.66 2.50 2.41 2.38 2.15 2.05
2.32 2.33 2.22 1.98 1.71 1.49 1.43 1.44 1.44 1.36 1.38 1.47 1.46 1.45 1.54 1.67 1.78 1.99 2.20 2.40 2.47 2.39 2.42 2.61 2.76 2.79 2.94 2.96 2.83 2.74 2.84 2.93 2.88 2.81 2.82 2.77 2.57 2.39
2.45 2.38 2.28 2.08 1.80 1.64 1.57 1.47 1.38 1.43 1.46 1.44 1.49 1.53 1.65 1.78 1.90 1.97 2.15 2.35 2.51 2.45 2.38 2.41 2.55 2.75 2.73 2.57 2.49 2.29 2.29 2.41 2.55 2.71 2.90 3.06 3.05 2.93
2.59 2.41 2.30 2.10 1.90 1.79 1.72 1.64 1.61 1.62 1.56 1.50 1.57 1.60 1.65 1.74 1.83 1.88 2.02 2.11 2.16 2.18 2.29 2.40 2.59 2.73 2.73 2.63 2.47 2.19 2.12 2.06 2.12 2.46 2.79 2.98 2.94 2.77
2.11 2.04 2.07 1.99 1.90 1.81 1.76 1.69 1.68 1.61 1.58 1.59 1.63 1.62 1.60 1.62 1.71 1.83 1.95 2.02 2.00 2.00 2.11 2.20 2.50 2.74 2.78 2.58 2.17 2.02 1.99 1.96 2.00 2.26 2.46 2.52 2.45 2.31
1.78 1.80 1.78 1.74 1.71 1.70 1.69 1.64 1.63 1.61 1.67 1.72 1.71 1.78 1.81 1.77 1.73 1.86 2.00 2.08 2.06 2.08 2.20 2.32 2.47 2.62 2.57 2.31 2.05 1.81 1.85 1.90 2.08 2.24 2.30 2.24 2.08 1.90
1.63 1.69 1.70 1.69 1.68 1.71 1.73 1.69 1.71 1.73 1.77 1.82 1.86 1.89 1.97 1.96 1.95 1.95 2.02 2.10 2.08 2.11 2.21 2.32 2.34 2.35 2.35 2.26 2.16 1.95 1.73 1.79 1.89 1.99 2.07 2.10 1.96 1.78
1.74 1.80 1.82 1.81 1.83 1.87 1.86 1.83 1.84 1.80 1.76 1.83 1.85 1.86 1.87 1.92 2.02 2.03 2.10 2.20 2.14 2.09 2.07 2.08 2.17 2.33 2.47 2.71 2.55 2.17 1.95 1.85 1.87 1.92 2.03 2.14 2.11 2.03
1.78 1.82 1.85 1.87 1.90 1.91 1.87 1.85 1.87 1.84 1.82 1.84 1.82 1.82 1.82 1.82 1.85 1.93 1.98 2.02 2.02 1.99 1.97 2.05 2.30 2.52 2.60 2.69 2.52 2.31 2.24 2.17 2.10 2.05 1.97 1.91 1.89 1.86
1.77 1.82 1.82 1.78 1.77 1.74 1.69 1.70 1.80 1.84 1.87 1.87 1.84 1.82 1.83 1.83 1.82 1.91 1.99 2.02 2.05 2.10 2.12 2.17 2.26 2.40 2.49 2.54 2.59 2.51 2.36 2.28 2.29 2.25 2.08 1.83 1.50 1.33

GEFSNE_prec_meanprecacc_366.txt.gz
Total_Precipitation_Accumulation
3.42 3.71 3.54 3.38 3.42 3.40 3.70 4.04 4.13 3.63 3.19 2.93 2.70 2.59 2.53 2.48 2.60 2.40 2.41 2.42 2.16 1.99 1.87 1.77 1.77 1.75 1.85 2.02 2.25 2.53 2.82 3.07 3.29 3.45 3.64 3.92 4.28 4.65
3.29 3.44 3.42 3.32 3.56 3.56 3.69 4.00 4.27 4.18 3.44 3.11 2.97 2.61 2.65 2.25 2.45 2.29 2.27 2.25 2.00 1.84 1.75 1.73 1.73 1.73 1.72 1.73 1.82 1.98 2.20 2.42 2.62 2.79 2.84 2.86 3.02 3.33
2.83 2.91 2.87 3.16 3.37 3.36 3.59 3.78 4.05 4.31 3.78 3.39 3.40 3.11 3.08 2.82 2.59 2.37 2.15 2.06 1.85 1.80 1.67 1.61 1.57 1.59 1.63 1.57 1.55 1.64 1.80 1.95 2.09 2.29 2.53 2.64 2.63 2.72
2.67 2.78 2.61 2.87 3.04 3.13 3.38 3.54 3.80 4.26 4.04 3.66 3.54 3.40 3.30 3.12 2.92 2.69 2.19 1.89 1.86 1.95 1.75 1.60 1.54 1.52 1.54 1.49 1.43 1.41 1.45 1.50 1.59 1.74 1.98 2.22 2.34 2.49
2.49 2.42 2.35 2.58 2.65 2.89 3.11 3.11 3.31 3.74 3.85 3.47 3.26 3.49 3.32 3.13 3.22 2.84 2.53 2.45 1.90 1.87 1.79 1.60 1.54 1.46 1.44 1.44 1.42 1.34 1.31 1.31 1.35 1.48 1.72 1.94 2.08 2.17
2.23 2.14 2.18 2.37 2.38 2.58 2.65 2.87 3.11 3.24 3.45 3.36 3.17 3.26 3.26 3.19 3.40 3.17 2.97 2.79 2.40 1.96 1.98 1.76 1.66 1.59 1.48 1.40 1.38 1.38 1.40 1.39 1.39 1.46 1.55 1.67 1.86 1.99
1.98 1.87 1.81 1.85 1.92 2.11 2.06 2.38 2.73 2.82 2.89 3.03 3.02 3.10 3.30 3.46 3.30 3.30 3.17 3.00 2.78 2.50 2.48 2.08 1.79 1.61 1.56 1.51 1.47 1.48 1.51 1.54 1.56 1.63 1.73 1.79 1.86 1.95
1.97 1.93 1.73 1.64 1.65 1.74 1.78 1.88 2.13 2.27 2.46 2.74 2.82 2.89 3.12 3.43 3.53 3.52 3.40 3.20 2.93 2.69 2.82 2.78 2.39 2.08 1.86 1.58 1.58 1.60 1.64 1.72 1.76 1.84 1.94 2.03 2.17 2.17
1.95 1.92 1.64 1.49 1.59 1.55 1.70 1.72 1.79 1.88 2.02 2.31 2.43 2.46 2.75 3.10 3.48 3.47 3.51 3.29 3.04 2.98 3.10 3.09 3.16 2.89 2.29 1.92 1.86 1.65 1.71 1.82 1.87 1.92 1.99 2.03 2.18 2.32
1.84 1.91 1.92 1.86 1.75 1.77 1.78 1.69 1.57 1.61 1.67 1.63 1.72 1.98 2.21 2.54 2.97 3.11 3.38 3.53 3.34 3.24 3.31 3.35 3.38 3.59 3.07 2.49 2.33 2.01 1.92 1.97 2.02 2.02 2.04 2.12 2.19 2.25
1.87 1.90 1.90 1.84 1.81 1.74 1.70 1.68 1.54 1.47 1.46 1.48 1.50 1.67 1.91 2.08 2.44 2.79 3.07 3.30 3.36 3.45 3.55 3.60 3.50 3.66 3.90 3.42 2.74 2.39 2.10 1.99 2.03 2.11 2.16 2.25 2.31 2.32
1.96 1.92 1.82 1.71 1.77 1.64 1.49 1.55 1.53 1.56 1.62 1.57 1.59 1.65 1.70 1.88 2.22 2.50 2.78 3.10 3.14 3.22 3.05 3.08 3.12 3.32 3.76 3.91 3.46 2.77 2.29 2.12 2.03 2.00 2.04 2.15 2.30 2.12
1.94 1.96 1.90 1.78 1.51 1.43 1.39 1.40 1.50 1.60 1.69 1.73 1.72 1.77 1.89 1.95 2.02 2.21 2.51 2.80 2.89 2.68 2.49 2.71 2.92 3.08 3.19 3.34 3.45 3.29 2.80 2.47 2.27 2.09 2.03 2.03 2.07 1.98
2.18 2.17 2.11 1.91 1.60 1.47 1.38 1.44 1.56 1.51 1.51 1.64 1.64 1.64 1.74 1.86 1.98 2.17 2.37 2.51 2.59 2.59 2.62 2.81 2.94 2.98 3.10 3.11 3.13 3.16 3.10 2.91 2.70 2.54 2.46 2.44 2.21 2.11
2.37 2.40 2.30 2.05 1.77 1.54 1.47 1.48 1.47 1.39 1.40 1.49 1.48 1.48 1.57 1.70 1.82 2.03 2.26 2.47 2.53 2.43 2.47 2.65 2.80 2.84 3.00 3.01 2.88 2.78 2.89 2.98 2.93 2.85 2.87 2.82 2.61 2.41
2.50 2.43 2.34 2.13 1.85 1.68 1.61 1.50 1.41 1.46 1.48 1.47 1.51 1.56 1.68 1.81 1.92 2.01 2.23 2.43 2.59 2.50 2.43 2.46 2.58 2.79 2.78 2.63 2.53 2.33 2.34 2.46 2.61 2.76 2.94 3.11 3.08 2.95
2.64 2.45 2.35 2.15 1.95 1.83 1.75 1.67 1.64 1.65 1.59 1.53 1.59 1.63 1.68 1.77 1.86 1.91 2.08 2.19 2.23 2.25 2.36 2.47 2.64 2.78 2.78 2.69 2.52 2.24 2.17 2.11 2.17 2.50 2.84 3.03 2.98 2.80
2.17 2.09 2.12 2.04 1.94 1.85 1.79 1.72 1.71 1.65 1.61 1.62 1.66 1.65 1.66 1.67 1.76 1.87 2.00 2.07 2.05 2.05 2.15 2.26 2.57 2.82 2.85 2.63 2.22 2.07 2.05 2.01 2.06 2.32 2.52 2.57 2.49 2.34
1.82 1.84 1.82 1.78 1.75 1.74 1.73 1.68 1.66 1.65 1.71 1.76 1.75 1.82 1.86 1.84 1.80 1.91 2.07 2.15 2.11 2.12 2.23 2.36 2.53 2.68 2.63 2.35 2.09 1.84 1.89 1.95 2.13 2.30 2.36 2.28 2.11 1.93
1.66 1.72 1.73 1.73 1.73 1.74 1.77 1.73 1.76 1.78 1.82 1.88 1.91 1.94 2.02 2.01 2.00 2.00 2.09 2.18 2.15 2.17 2.25 2.35 2.39 2.42 2.40 2.30 2.18 1.97 1.76 1.84 1.94 2.03 2.13 2.15 1.99 1.80
1.78 1.85 1.87 1.87 1.89 1.93 1.90 1.87 1.90 1.89 1.84 1.89 1.91 1.93 1.93 1.97 2.06 2.09 2.16 2.27 2.23 2.16 2.12 2.13 2.22 2.37 2.51 2.74 2.58 2.20 1.98 1.88 1.92 1.97 2.08 2.19 2.14 2.04
1.82 1.87 1.91 1.94 1.98 1.99 1.95 1.91 1.92 1.89 1.87 1.89 1.86 1.85 1.86 1.86 1.88 1.96 2.01 2.07 2.10 2.09 2.04 2.10 2.35 2.55 2.64 2.73 2.56 2.35 2.27 2.19 2.14 2.10 2.03 1.95 1.93 1.88
1.81 1.86 1.86 1.84 1.83 1.81 1.76 1.78 1.88 1.91 1.93 1.92 1.88 1.85 1.85 1.86 1.85 1.93 2.00 2.05 2.09 2.16 2.19 2.23 2.31 2.44 2.54 2.59 2.63 2.55 2.39 2.31 2.32 2.28 2.13 1.89 1.55 1.37